Simultaneous Nadir Overpasses (SNOs) Predictions

Prediction of SNOs between METOP-B and NOAA-19 Satellite Orbit:

Table of predicted SNOs for the next 14.0 days since TLE Epoch: 12/31/2022
Index Date (METOP-B) Time (METOP-B) Lat,Lon (METOP-B) SZA (METOP-B ) Date (NOAA-19) Time (NOAA-19) Lat,Lon (NOAA-19) SZA (NOAA-19 ) Distance(km) Time Diff (sec)
1 01/04/2023 01:31:48 -80.92, 12.00 74.91 01/04/2023 01:30:36 -80.92, 11.97 74.94 0.63 72
2 01/04/2023 02:22:29 80.92, 179.25 105.08 01/04/2023 02:21:30 80.92, 179.43 105.08 3.09 59
3 01/04/2023 03:13:10 -80.91, -13.49 74.94 01/04/2023 03:12:35 -80.92, -13.33 74.93 2.83 35
4 01/04/2023 04:03:50 80.93, 154.13 105.10 01/04/2023 04:03:29 80.92, 154.13 105.09 0.85 21
5 01/04/2023 04:54:31 -80.92, -38.62 74.92 01/04/2023 04:54:34 -80.92, -38.63 74.92 0.50 3
6 01/04/2023 05:45:12 80.92, 128.64 105.07 01/04/2023 05:45:29 80.92, 128.46 105.06 3.03 17
7 01/04/2023 06:35:53 -80.92, -64.11 74.95 01/04/2023 06:36:33 -80.92, -63.93 74.91 3.14 40



Historial Predications of SNOs between METOP-B and NOAA-19
